SL-3 R/B

Satellite information

Favourite Embed

Satellite Type and Status

ROCKET BODYIN ORBIT

Key statistics

Satellite SL-3 R/B at a glance.

Uptime

19526

Days in orbit

Revolutions

≈ 14.0

Per day

Orbit

LEO

Low Earth Orbit

Inclination

81.2

Latest

Satellite identification and parameters

Extended collection of information and parameters for SL-3 R/B.

Object identification

Identified? True

Debris? False

Object name: SL-3 R/B

International designator: 1972-049B

Object number (NORAD): 6080

Object ID (CCSDS): 6080

Country: COMMONWEALTH OF INDEPENDENT STATES (CIS)

Current information (Y/N): Y

RCS size: LARGE

Orbital parameters

Period: 102.764 minutes

Inclination: 81.2395 deg

SMA: 7267.52 km

Apoapsis: 924.329 km

Periapsis: 854.441 km

RAAN: 250.4998 deg

Eccentricy: 0.00480828

Argument of periapsis: 220.6009 deg

Mean anomaly: 139.1568 deg

Mean motion: 14.01275177 rev/day

Mean motion (dot): 0.00000063 rev/day2

B* drag term: 0.000033851001 1/REarth

Two-line elements (TLE)

Creation date: Dec. 14, 2025, 6:24 p.m.

Reference frame: TEME

Reference center: EARTH

Epoch: Dec. 14, 2025, 3:53 a.m. UTC

TLE line 0: 0 SL-3 R/B

TLE line 1: 1 06080U 72049B 25348.16244754 .00000063 00000-0 33851-4 0 9994

TLE line 2: 2 06080 81.2395 250.4998 0048083 220.6009 139.1568 14.01275177731282

Live tracking on map

Real-time ground track for satellite SL-3 R/B.

In-orbit conjunctions

A list of the most updated potential collisions computed for object SL-3 R/B.

Target Orbit TCA Probability of collision Miss distance Type
CZ-6A DEB SSO 2025-07-18 20:07:36 0.001644578 205.0 (m) DEBRIS
THOR ABLESTAR DEB LEO 2025-05-05 17:08:08 0.0002095276 839.0 (m) DEBRIS
CZ-6A DEB SSO 2025-02-03 14:35:01 0.0001233616 207.0 (m) DEBRIS
CZ-6A DEB SSO 2025-01-04 19:03:51 0.0003499788 121.0 (m) DEBRIS
CZ-4 DEB SSO 2024-11-30 09:54:13 0.0001011675 241.0 (m) DEBRIS

Associated space launch

The Meteor-1 series was the first series of Soviet meteorological satellites.

SL-3 R/B was lifted into orbit during the mission ‘Vostok 8A92M | Meteor-1 12 (26L)’, on board a Vostok 8A92M space rocket.

The launch took place on June 30, 1972, 6:52 p.m. from 41/1.

For more information about the launch, click the button.

Launch to space Vostok 8A92M | Meteor-1 12 (26L)
Vostok 8A92M | Meteor-1 12 (26L)

Agency: N/A

Status: Launch Successful

Launch date: June 30, 1972, 6:52 p.m. UTC

Rocket: Vostok 8A92M

Launch pad: 41/1

Location: Plesetsk Cosmodrome, Russian Federation

...

Latest news about this satellite

There are no fresh news available about this satellite. Check back as we update our databases every day.


Newsletter sign-up

Weekly statistics, charts and insights to help you stay on top of the space industry.